Regional Weather Roundup
Issued by NWS Charleston, WV

Home | Current Version | Previous Version | Text Only | Print | Product List | Glossary Off
Versions: 1 2 3 4 5 6 7 8 9 10 11 12 13 14 15 16 17 18 19 20 21 22 23 24 25 26 27 28 29 30 31 32 33 34 35 36 37 38 39 40 41 42 43 44 45 46 47 48 49 50

000
ASUS41 KRLX 211110
RWRRLX
West Virginia Regional Weather Roundup
National Weather Service Charleston WV
700 AM EDT SAT APR 21 2018

Note: "fair" indicates few or no clouds below 12,000 feet with no
significant weather and/or obstructions to visibility.

WVZ003-211200-
Northern Panhandle of West Virginia

CITY           SKY/WX    TMP DP  RH WIND       PRES   REMARKS
WHEELING       FAIR      30  20  66 CALM      30.45S
$$

WVZ009-211200-
Northwest West Virginia

CITY           SKY/WX    TMP DP  RH WIND       PRES   REMARKS
PARKERSBURG    FAIR      31  24  75 CALM      30.48R
$$

WVZ006-211200-
Western West Virginia

CITY           SKY/WX    TMP DP  RH WIND       PRES   REMARKS
HUNTINGTON     FAIR      39  25  57 NE3       30.42R
$$

WVZ015-211200-
West Central West Virginia

CITY           SKY/WX    TMP DP  RH WIND       PRES   REMARKS
CHARLESTON     FAIR      30  27  88 CALM      30.42R
$$

WVZ022-031-211200-
North Central West Virginia

CITY           SKY/WX    TMP DP  RH WIND       PRES   REMARKS
CLARKSBURG     FAIR      28  23  81 NE3       30.44R
MORGANTOWN     FAIR      31  26  82 CALM      30.45R
$$

WVZ025-035-042-045-211200-
Southern West Virginia

CITY           SKY/WX    TMP DP  RH WIND       PRES   REMARKS
BECKLEY        FAIR      32  20  61 E3        30.39R
LOGAN          FAIR      37  21  52 CALM      30.39R
BLUEFIELD      FAIR      38  15  39 NE6       30.39R
LEWISBURG      FAIR      27  23  85 CALM      30.42R
$$

WVZ047-211200-
Northern Mountains of West Virginia

CITY           SKY/WX    TMP DP  RH WIND       PRES   REMARKS
ELKINS         FAIR      25  21  85 CALM      30.43R
$$

WVZ052-211200-
Eastern Panhandle of West Virginia

CITY           SKY/WX    TMP DP  RH WIND       PRES   REMARKS
MARTINSBURG    FAIR      30  26  85 CALM      30.45R
PETERSBURG     FAIR      27  24  91 CALM      30.48R
$$



USA.gov is the U.S. government's official web portal to all federal, state and local government web resources and services.